TimeCDT,TemperatureF,Dew PointF,Humidity,Sea Level PressureIn,VisibilityMPH,Wind Direction,Wind SpeedMPH,Gust SpeedMPH,PrecipitationIn,Events,Conditions,WindDirDegrees,DateUTC
12:15 AM,70.7,68.7,93,29.79,10.0,NE,6.9,-,N/A,,Overcast,50,2013-09-22 05:15:00
12:35 AM,70.2,68.5,95,29.78,10.0,NE,8.1,-,N/A,Rain,Light Rain,40,2013-09-22 05:35:00
12:55 AM,69.8,67.5,92,29.78,10.0,NE,11.5,17.3,N/A,,Overcast,40,2013-09-22 05:55:00
1:15 AM,69.4,66.6,91,29.78,10.0,NE,12.7,-,N/A,,Overcast,40,2013-09-22 06:15:00
1:35 AM,69.3,65.3,87,29.79,10.0,NE,8.1,-,N/A,,Overcast,40,2013-09-22 06:35:00
1:55 AM,69.1,63.9,83,29.79,10.0,NE,9.2,-,N/A,,Overcast,40,2013-09-22 06:55:00
2:15 AM,68.9,63.7,83,29.78,10.0,NE,11.5,-,N/A,,Overcast,40,2013-09-22 07:15:00
2:35 AM,68.5,63.7,84,29.78,10.0,NE,9.2,-,N/A,,Overcast,40,2013-09-22 07:35:00
2:55 AM,68.4,62.8,82,29.78,10.0,NE,6.9,-,N/A,,Overcast,40,2013-09-22 07:55:00
3:15 AM,68.2,62.2,81,29.77,10.0,NNE,9.2,-,N/A,,Overcast,30,2013-09-22 08:15:00
3:35 AM,68.0,62.4,82,29.76,10.0,NNE,8.1,-,N/A,,Overcast,30,2013-09-22 08:35:00
3:55 AM,68.0,63.0,84,29.76,10.0,NNE,9.2,-,N/A,,Overcast,30,2013-09-22 08:55:00
4:15 AM,67.5,61.9,82,29.76,10.0,NNE,8.1,-,N/A,,Overcast,20,2013-09-22 09:15:00
4:35 AM,66.7,61.7,84,29.76,10.0,NNE,8.1,-,N/A,,Mostly Cloudy,30,2013-09-22 09:35:00
4:55 AM,66.6,61.7,84,29.76,10.0,NNE,8.1,-,N/A,,Overcast,20,2013-09-22 09:55:00
5:15 AM,66.2,61.2,84,29.76,10.0,NNE,6.9,-,N/A,,Mostly Cloudy,20,2013-09-22 10:15:00
5:35 AM,65.8,61.2,85,29.77,10.0,NNE,6.9,-,N/A,,Overcast,20,2013-09-22 10:35:00
5:55 AM,65.7,61.0,85,29.77,10.0,NNE,8.1,-,N/A,,Overcast,20,2013-09-22 10:55:00
6:15 AM,65.8,60.8,84,29.77,10.0,NNE,8.1,-,N/A,,Overcast,20,2013-09-22 11:15:00
6:35 AM,65.7,60.8,84,29.78,10.0,NNE,9.2,-,N/A,,Overcast,30,2013-09-22 11:35:00
6:55 AM,65.7,60.8,84,29.78,10.0,NNE,10.4,-,N/A,,Overcast,30,2013-09-22 11:55:00
7:15 AM,65.5,61.0,85,29.79,10.0,NE,10.4,-,N/A,,Overcast,40,2013-09-22 12:15:00
7:35 AM,65.8,61.2,85,29.79,10.0,NNE,10.4,-,N/A,,Overcast,30,2013-09-22 12:35:00
7:55 AM,66.2,61.3,84,29.80,10.0,NNE,10.4,-,N/A,,Overcast,30,2013-09-22 12:55:00
8:15 AM,66.6,61.5,84,29.81,10.0,NE,8.1,-,N/A,,Overcast,40,2013-09-22 13:15:00
8:35 AM,67.1,61.5,82,29.81,10.0,North,-9999.0,-,N/A,,Overcast,0,2013-09-22 13:35:00
8:55 AM,67.3,61.5,82,29.82,10.0,North,-9999.0,-,N/A,,Overcast,0,2013-09-22 13:55:00
9:15 AM,67.3,61.2,81,29.82,10.0,North,-9999.0,-,N/A,,Overcast,0,2013-09-22 14:15:00
9:35 AM,68.0,61.2,79,29.83,10.0,North,-9999.0,-,N/A,,Overcast,0,2013-09-22 14:35:00
9:55 AM,68.9,61.0,76,29.83,10.0,North,-9999.0,-,N/A,,Overcast,0,2013-09-22 14:55:00
10:15 AM,69.6,61.0,74,29.83,10.0,North,-9999.0,-,N/A,,Overcast,0,2013-09-22 15:15:00
10:35 AM,70.7,61.0,71,29.83,10.0,North,-9999.0,-,N/A,,Overcast,0,2013-09-22 15:35:00
10:55 AM,72.5,62.2,70,29.84,10.0,NE,11.5,-,N/A,,Overcast,40,2013-09-22 15:55:00
11:15 AM,73.2,62.1,68,29.83,10.0,NNE,13.8,19.6,N/A,,Overcast,30,2013-09-22 16:15:00
11:35 AM,74.7,61.9,64,29.83,10.0,North,-9999.0,-,N/A,,Overcast,0,2013-09-22 16:35:00
11:55 AM,76.3,62.2,62,29.83,10.0,North,-9999.0,-,N/A,,Overcast,0,2013-09-22 16:55:00
12:15 PM,76.3,61.9,61,29.82,10.0,North,-9999.0,-,N/A,,Overcast,0,2013-09-22 17:15:00
12:35 PM,77.0,62.2,60,29.82,10.0,NE,13.8,-,N/A,,Overcast,40,2013-09-22 17:35:00
12:55 PM,77.7,62.8,60,29.81,10.0,North,-9999.0,-,N/A,,Overcast,0,2013-09-22 17:55:00
1:35 PM,78.8,62.2,57,29.80,10.0,North,-9999.0,-,N/A,,Overcast,0,2013-09-22 18:35:00
1:55 PM,80.1,62.4,55,29.79,10.0,North,-9999.0,-,N/A,,Overcast,0,2013-09-22 18:55:00
2:15 PM,79.7,61.5,54,29.78,10.0,NE,12.7,-,N/A,,Overcast,50,2013-09-22 19:15:00
2:35 PM,79.7,61.9,54,29.77,10.0,North,-9999.0,-,N/A,,Overcast,0,2013-09-22 19:35:00
2:55 PM,79.7,61.5,54,29.76,10.0,NE,15.0,18.4,N/A,,Overcast,40,2013-09-22 19:55:00
3:15 PM,80.4,62.4,54,29.76,10.0,ENE,13.8,-,N/A,,Overcast,70,2013-09-22 20:15:00
3:35 PM,80.6,62.4,54,29.76,10.0,North,-9999.0,-,N/A,,Overcast,0,2013-09-22 20:35:00
3:55 PM,79.7,61.7,54,29.76,10.0,North,-9999.0,-,N/A,,Overcast,0,2013-09-22 20:55:00
4:15 PM,79.9,61.9,54,29.76,10.0,North,-9999.0,-,N/A,,Overcast,0,2013-09-22 21:15:00
4:35 PM,79.9,61.7,54,29.76,10.0,North,-9999.0,-,N/A,,Overcast,0,2013-09-22 21:35:00
4:55 PM,79.3,60.1,52,29.76,10.0,North,-9999.0,-,N/A,,Overcast,0,2013-09-22 21:55:00
5:15 PM,79.9,58.6,48,29.76,10.0,NE,12.7,-,N/A,,Overcast,40,2013-09-22 22:15:00
5:35 PM,79.0,56.3,46,29.76,10.0,North,-9999.0,-,N/A,,Overcast,0,2013-09-22 22:35:00
5:55 PM,78.6,56.3,46,29.77,10.0,NE,8.1,-,N/A,,Overcast,40,2013-09-22 22:55:00
6:15 PM,78.3,56.5,47,29.77,10.0,NE,9.2,-,N/A,,Overcast,40,2013-09-22 23:15:00
6:35 PM,77.5,56.8,49,29.76,10.0,North,-9999.0,-,N/A,,Overcast,0,2013-09-22 23:35:00
6:55 PM,77.0,57.9,52,29.77,10.0,North,-9999.0,-,N/A,,Overcast,0,2013-09-22 23:55:00
7:15 PM,75.4,58.3,55,29.76,10.0,NE,5.8,-,N/A,,Mostly Cloudy,40,2013-09-23 00:15:00
7:35 PM,74.3,59.2,59,29.77,10.0,NNE,4.6,-,N/A,,Scattered Clouds,30,2013-09-23 00:35:00
7:55 PM,73.2,59.7,63,29.77,10.0,North,-9999.0,-,N/A,,Clear,0,2013-09-23 00:55:00
8:15 PM,72.7,60.1,64,29.78,10.0,North,-9999.0,-,N/A,,Scattered Clouds,0,2013-09-23 01:15:00
8:35 PM,72.0,59.9,66,29.79,10.0,NE,4.6,-,N/A,,Scattered Clouds,40,2013-09-23 01:35:00
8:55 PM,71.6,59.4,65,29.80,10.0,NNE,3.5,-,N/A,,Clear,30,2013-09-23 01:55:00
9:15 PM,70.9,59.7,68,29.80,10.0,NNE,3.5,-,N/A,,Mostly Cloudy,20,2013-09-23 02:15:00
9:35 PM,70.7,59.7,68,29.80,10.0,NNE,5.8,-,N/A,,Overcast,30,2013-09-23 02:35:00
9:55 PM,70.0,59.9,70,29.81,10.0,NE,4.6,-,N/A,,Mostly Cloudy,40,2013-09-23 02:55:00
10:15 PM,70.3,59.5,69,29.81,10.0,North,-9999.0,-,N/A,,Overcast,0,2013-09-23 03:15:00
10:35 PM,69.8,59.7,70,29.81,10.0,NNE,5.8,-,N/A,,Overcast,30,2013-09-23 03:35:00
10:55 PM,69.6,59.4,70,29.81,10.0,ENE,3.5,-,N/A,,Overcast,70,2013-09-23 03:55:00
11:15 PM,68.9,59.7,72,29.81,10.0,North,-9999.0,-,N/A,,Mostly Cloudy,0,2013-09-23 04:15:00
11:35 PM,68.9,59.0,71,29.81,10.0,NE,4.6,-,N/A,,Mostly Cloudy,50,2013-09-23 04:35:00
11:55 PM,68.0,59.4,74,29.82,10.0,North,-9999.0,-,N/A,,Scattered Clouds,0,2013-09-23 04:55:00